Regional Weather Roundup
Issued by NWS Wakefield, VA

Home | Current Version | Previous Version | Text Only | Print | Product List | Glossary Off
Versions: 1 2 3 4 5 6 7 8 9 10 11 12 13 14 15 16 17 18 19 20 21 22 23 24 25 26 27 28 29 30 31 32 33 34 35 36 37 38 39 40 41 42 43 44 45 46 47 48 49 50

000
ASUS41 KAKQ 290010
RWRAKQ

REGIONAL WEATHER ROUNDUP
NATIONAL WEATHER SERVICE WAKEFIELD VA
800 PM EDT THU AUG 28 2014

Note: "fair" indicates few or no clouds below 12,000 feet with no
significant weather and/or obstructions to visibility. * = Denotes
station may not report precipitation (e.g., rain,snow,etc.),
thunder or fog.

VAZ042-051-052>054-056-290100-
NORTHERN VIRGINIA

CITY           SKY/WX    TMP DP  RH WIND       PRES   REMARKS
WASH NATIONAL  PTCLDY    79  53  40 N10       30.01R
DULLES         PTCLDY    76  53  44 N7        30.02R
FORT BELVOIR   CLEAR     74  58  56 VRB1      30.01R
QUANTICO       CLEAR     79  60  52 N6        30.00R
FREDERICKSBRG* CLEAR     80  64  57 NE5       29.99R
STAFFORD*      CLEAR     77  62  59 N3        30.04R
WARRENTON      CLEAR     76  65  70 NE5       30.01R
CULPEPER*      CLEAR    N/A N/A N/A CALM      30.01R
MANASSAS*      CLEAR     77  54  44 N5        30.01R
LEESBURG*      CLEAR     77  57  50 NE3       30.03R
WINCHESTER     CLEAR     73  50  43 NW7       30.04R
$$

VAZ048-049-060>072-079>083-290100-
CENTRAL AND SOUTH CENTRAL VIRGINIA...AND NORTH CENTRAL NORTH CAROLINA

CITY           SKY/WX    TMP DP  RH WIND       PRES   REMARKS
RICHMOND       MOCLDY    82  57  42 NE5       29.98R
CHESTERFIELD*  CLOUDY    84  57  39 E5        29.99R
PETERSBURG*    PTCLDY    75  70  85 CALM      29.98R
HANOVER        MOCLDY    78  67  68 CALM      29.99R
TAPPAHANNOCK*  CLEAR     73  61  66 CALM      30.00R
CHARLOTTSVILLE CLEAR     78  63  59 NE5       30.00R
ORANGE*        CLEAR     77  61  57 CALM      30.02R
LOUISA*        CLEAR     72  68  88 CALM      29.99R
FARMVILLE*     MOCLDY    75  68  78 E6        29.96S
SOUTH HILL*    CLEAR     79  79 100 CALM      30.02S
ROANOKE RAPIDS CLEAR     79  72  78 CALM      29.97R
RALEIGH        PTCLDY    82  73  74 CALM      29.98R
$$

VAZ088>098-290100-
SOUTHEAST VIRGINIA

CITY           SKY/WX    TMP DP  RH WIND       PRES   REMARKS
NORFOLK        CLEAR     80  66  62 CALM      29.97R
VIRGINIA BEACH PTCLDY    78  71  79 SE8       29.97R
NORFOLK NAVAL  PTCLDY    81  69  67 NE6       29.99R
WEST POINT*    CLOUDY    79  61  53 CALM      29.99R
NEWPORT NEWS   CLEAR     80  72  76 E8        29.98R
LANGLEY AFB    CLEAR     76  72  85 E6        29.97R
FORT EUSTIS    CLEAR     79  62  56 E3        29.96R
WILLIAMSBURG*  CLEAR     79  70  73 CALM      29.99R
FRANKLIN*      CLEAR     81  70  69 CALM      29.97R
WAKEFIELD      CLEAR     78  73  84 CALM      29.97R
$$

VAZ020-022-025-037-045-290100-
WESTERN AND SOUTHWEST VIRGINIA

CITY           SKY/WX    TMP DP  RH WIND       PRES   REMARKS
STAUNTON*      CLEAR     76  58  52 NE7       30.05R
HOT SPRINGS VA CLEAR     67  51  56 NW7       30.19R
LYNCHBURG      CLEAR     78  72  81 W3        30.00R
DANVILLE       CLEAR     79  72  79 CALM      29.98R
MARTINSVILLE   CLEAR     77  75  92 CALM      30.03R
ROANOKE        PTCLDY    79  65  62 NW7       30.03R
BLACKSBURG     CLEAR     75  68  78 CALM      30.10R
DUBLIN*        CLEAR     77  67  70 CALM      30.10R
MARION*        CLEAR    N/A N/A N/A CALM      30.14S
HILLSVILLE*    CLEAR     76  65  69 N3        30.12R
RICHLANDS*     CLEAR     78  66  68 NE3       30.13R
WISE*          CLEAR     73  63  68 NE5       30.14R
ABINGDON*      CLEAR     81  67  63 NE3       30.08S
$$

MDZ021>025-VAZ099-100-290100-
SOUTHERN MARYLAND AND THE DELMARVA PENINSULA

CITY           SKY/WX    TMP DP  RH WIND       PRES   REMARKS
PATUXENT RIVER PTCLDY    76  58  53 N7        29.99R
BAY BRIDGE APT   N/A     75  54  46 N6        30.00R
LEONARDTOWN    CLEAR     73  59  60 CALM      30.01R
DOVER          CLEAR     71  56  59 NW9       29.98R
GEORGETOWN     CLEAR     75  59  57 E7        29.99R
EASTON         NOT AVBL
CAMBRIDGE      CLEAR     73  61  64 NE3       29.99R
SALISBURY      CLEAR     77  61  57 CALM      29.99R
OCEAN CITY     CLEAR     71  62  73 NW3       29.98R
WALLOPS ISLAND PTCLDY    76  70  82 CALM      29.99R
ACCOMACK*      NOT AVBL
$$

NCZ012>017-030>032-290100-
EASTERN NORTH CAROLINA

CITY           SKY/WX    TMP DP  RH WIND       PRES   REMARKS
ELIZABETH CITY CLEAR     77  71  82 SE6       29.98R
AHOSKIE*       CLEAR     78  74  87 CALM      29.97R
EDENTON*       CLEAR     78  74  86 E9        29.97R
CURRITUCK*     CLEAR     77  68  73 CALM      29.99R
KILL DEVIL HLS MOCLDY    77  69  77 SE5       29.98R
MANTEO         PTCLDY    76  68  76 E5        29.99R
CAPE HATTERAS  CLEAR     79  72  79 SW10      29.98R
GOLDSBORO      CLEAR     82  79  89 E2        29.95R
WASHINGTON     CLEAR     81  74  79 CALM      29.97R
GREENVILLE     CLEAR     81  77  89 CALM      29.99R
NEW BERN       PTCLDY    82  70  65 S6        29.98R
WILMINGTON     CLEAR     82  66  58 SW7       29.98R
$$

VAZ048-290100-
ELSEWHERE

CITY           SKY/WX    TMP DP  RH WIND       PRES   REMARKS
HARRISBURG PA  PTCLDY    72  52  49 NW3       30.01R
BALTIMORE      PTCLDY    74  52  46 N5        30.01R
ANNAPOLIS      CLEAR     77  57  50 N7        30.00R
ANDREWS AFB    CLEAR     72  55  54 N7        30.01R
WILMINGTON DE  CLEAR     68  53  58 NW6       30.01R
PHILADELPHIA   PTCLDY    76  50  40 NW9       30.00R
WILDWOOD NJ*   CLEAR     73  52  46 N6        29.99R
ATLANTIC CITY  CLEAR     70  54  56 NW5       29.98R
HENDERSON NC   CLEAR     80  71  74 CALM      29.98R
GREENSBORO     PTCLDY    85  69  58 N5        29.99R
ROCKY MOUNT    CLEAR     79  75  87 CALM      29.97R
FAYETTEVILLE   PTCLDY    88  65  46 S7        29.96R
CHARLOTTE      PTCLDY    84  67  56 SW3       30.00R
$$

VAZ100-290100-
MARINE

STATION/POSITION TIME  TEMP    WIND        PRES    WAVE   SWELL
                       AIR SEA DIR/SP/G            HT/PER HT/PER
                 (UTC) (F)     (DEG/KT/KT) (MB)    (FT/S) (FT/S)
44066 TX TWR #4  0000   73 72  280/ 10/ 10 1013.5R   5/13   5/13
CAPE MAY NJ      0000   76 80  350/  6/ 11 1014.8R
LEWES DE         0000   77 78  350/ 16/ 19 1014.9R
15NM E FENWICK I 0000   76 74              1014.8R   5/13
OCEAN-CITY-INLET 0000   78 79  360/  6/  7 1014.9R
WACHAPREAGUE VA  0000   78 83  320/  1/  2 1015.2R
THOMAS POINT MD  0000   79 79  340/ 11/ 12 1016.6R
GOOSES REEF MD   0000   80      20/ 12/ 14 1015.7R
COVE POINT MD    0000   79      10/  7/ 10 1015.4R
SOLOMONS ISLAND  0000      81                N/A
BISHOPS HEAD MD  0000   77 81  360/  4/  5 1015.1R
PINEY POINT MD   0000           20/  8/  9   N/A
POTOMAC MD       0000   80      30/ 12/ 16 1014.6R
CAMBRIDGE MD     0000   78 80   10/  7/  8 1015.2R
LEWISETTA VA     0000   79 80   40/  8/ 11 1014.9R
RAPPAHANNOCK LGT 0000           10/ 12/ 13 1015.6R
STINGRAY PT      0000   80      60/  8/  8   N/A
YORK RVR RNG VA  0000   78      70/  8/  9 1014.7R
YORKTOWN VA      0000   79 80   90/  6/  7 1014.8R
JAMESTOWN VA     0000   81      60/  2/  6   N/A
DOMINION TERM VA 0000   81      20/  2/  3 1014.9R
KIPTOPEKE VA     0000      81   30/  6/  7   N/A
CHES BAY BRIDGE  0000   79 79  110/  2/  4 1014.5R
CAPE HENRY VA    0000   80      80/  2/  2 1013.7R
CHESAPEAKE LGHT  2300   78     130/  3/  3 1015.1S
WILLOUBY STN VA  0000   79      60/  3/  3 1013.8R
S CRANEY ISL VA  0000           30/  4/  5 1014.4R
CAPE HENRY BUOY  0000      78                N/A     3/11   2/11
1ST LANDING BUOY 0000   79     140/  2/  2 1014.5R
CAPE CHARLES BUO 0000      79                N/A     3/11   3/11
OFFSHORE WE BUOY 0000      78                N/A     4/11   3/11
64NM E OF VA BCH 0000   75 76   CALM  /  4 1014.8R   4/10   3/10
DUCK PIER NC     0000   77 78  130/  9/  9 1014.6R
44056 DUCK FRF   0000                        N/A     3/11   2/11
OREGON INLET NC  0000   76 79   90/  5/  8 1015.4R
HATTERAS NC      0000   81 80  220/  7/ 11 1015.5R
DIAMOND SHLS NC  0000   81     230/ 10/ 12 1015.1R   5/ 9   5/ 9
CAPE LOOKOUT NC  0000   80     230/  6/  8 1015.3R
$$



USA.gov is the U.S. government's official web portal to all federal, state and local government web resources and services.